Regional Weather Roundup
Issued by NWS

Home | Current Version | Previous Version | Graphics & Text | Print | Product List | Glossary Off
Versions: 1 2 3 4 5 6 7 8 9 10 11 12 13 14 15 16 17 18 19 20 21 22 23 24 25 26 27 28 29 30 31 32 33 34 35 36 37 38 39 40 41 42 43 44 45 46 47 48 49 50

000
ASUS43 KMPX 201701
RWRMN
WEATHER ROUNDUP FOR MINNESOTA
NATIONAL WEATHER SERVICE TWIN CITIES/CHANHASSEN MN
1200 PM CDT SAT SEP 20 2014


NOTE: "FAIR" INDICATES FEW OR NO CLOUDS BELOW 12,000 FEET WITH NO
SIGNIFICANT WEATHER AND/OR OBSTRUCTIONS TO VISIBILITY. N/A MEANS
CURRENT SKY AND/OR WEATHER CONDITIONS ARE NOT AVAILABLE.

MNZ060>063-068>070-201800-
   Twin Cities Metro

CITY           SKY/WX    TMP DP  RH WIND       PRES   REMARKS
TWIN CITIES    MOSUNNY   74  57  55 W13       29.81S
ST PAUL        SUNNY     72  58  61 NW14      29.80S
CRYSTAL        SUNNY     73  56  54 NW10      29.79F
BLAINE         MOSUNNY   72  57  60 NW12G18   29.80F
LAKEVILLE      SUNNY     70  59  68 W12G18    29.81S
EDEN PRAIRIE   SUNNY     72  59  63 W9        29.81S
SOUTH ST PAUL  SUNNY     73  56  54 NW10      29.80S
LAKE ELMO      FAIR      70  59  68 W9        29.81S
$$
MNZ001>005-007-008-013>017-022>024-027-028-201800-
   Northwest Minnesota

CITY           SKY/WX    TMP DP  RH WIND       PRES   REMARKS
BEMIDJI        CLOUDY    60  53  76 W13       29.79S
HALLOCK        RAIN      57  55  94 SW8       29.73S
ROSEAU         MOSUNNY   57  48  72 CALM      29.74F
WARROAD        MOSUNNY   57  50  77 SW3       29.74F
THIEF RVR FALL PTSUNNY   61  54  77 S8        29.75F
CROOKSTON      PTSUNNY   63  55  77 S8        29.76F
FOSSTON        PTSUNNY   63  54  72 SW7       29.78F
DETROIT LAKES  MOSUNNY   64  54  68 W9        29.82F
MOORHEAD       SUNNY     68  59  73 SW9       29.80F
PARK RAPIDS    CLOUDY    61  54  77 W13       29.81S
MAHNOMEN       FAIR      62  54  75 SW6       29.80F
$$
MNZ006-009>011-018-025>026-201800-
   North Central Minnesota

CITY           SKY/WX    TMP DP  RH WIND       PRES   REMARKS
BAUDETTE       MOSUNNY   57  47  69 VRB5      29.74F
FLAG ISLAND    PTSUNNY   52  45  76 W5        29.72F
INTL FALLS     CLOUDY    55  51  86 W9        29.74S
WASKISH        SUNNY     59  50  72 SW9       29.76F
BIG FORK       SUNNY     63  45  51 NW5       29.76S
LONGVILLE      CLOUDY    63  54  72 W10G17    29.79S
GRAND RAPIDS   MOSUNNY   61  48  63 W10G21    29.77S
CRANE LAKE     CLOUDY    54  52  94 W6        29.75R FOG
ORR            CLOUDY    54  46  76 W8        29.73R
COOK           CLOUDY    55  48  76 W10       29.76R
WALKER         CLOUDY    60  53  75 W10       29.78F
$$
MNZ012-019>021-037-201800-
   Northeast Minnesota

CITY           SKY/WX    TMP DP  RH WIND       PRES   REMARKS
DULUTH         PTSUNNY   62  50  64 NW14      29.74R
ELY            CLOUDY    54  52  94 W7        29.73R
HIBBING        SUNNY     63  47  55 NW14      29.75R
EVELETH        MOSUNNY   59  48  67 NW14      29.75S
DULUTH HARBOR  CLOUDY    63  54  72 W15       29.75R
TWO HARBORS    CLOUDY    59  50  72 NW8       29.70R
SILVER BAY     SUNNY     61  55  82 W3        29.69R
GRAND MARAIS     N/A     68  55  63 MISG      29.64R
G MARAIS ARPRT SUNNY     61  50  67 NW7G25    29.67R
$$
MNZ029>031-032-039>041-046>048-054>057-064-201800-
   West Central Minnesota

CITY           SKY/WX    TMP DP  RH WIND       PRES   REMARKS
FERGUS FALLS   SUNNY     70  54  56 W8G18     29.82F
WHEATON        SUNNY     70  55  60 SW9       29.85F
MORRIS         SUNNY     72  57  60 W8        29.84F
ALEXANDRIA     SUNNY     64  55  72 W9        29.86F
ELBOW LAKE     FAIR      68  57  68 W8        29.84F
WADENA         CLOUDY    63  55  77 W6        29.82S
GLENWOOD       SUNNY     64  55  72 W8        29.85F
APPLETON       SUNNY     72  57  60 SW7       29.85F
BENSON         SUNNY     70  57  64 NW7       29.85F
ORTONVILLE     SUNNY     72  55  56 W5        29.85F
MADISON        SUNNY     73  61  64 W8        29.86F
WILLMAR        FAIR      70  55  60 NW10      29.87F
$$
MNZ033>034-036-042>043-049>051-058-059-201800-
   Central Minnesota

CITY           SKY/WX    TMP DP  RH WIND       PRES   REMARKS
ST CLOUD       SUNNY     72  56  57 NW10      29.81F
SAUK CENTRE    FAIR      66  56  71 W10       29.84F
PAYNESVILLE    SUNNY     66  55  68 SW10G17   29.85S
AITKIN         PTSUNNY   66  55  68 W10G17    29.78S
PINE RIVER     CLOUDY    63  54  72 NW6       29.84S
BRAINERD       PTSUNNY   62  53  72 NW12G21   29.82S
STAPLES        CLOUDY    63  54  72 NW9       29.82F
LONG PRAIRIE   FAIR      64  55  72 SW10      29.84F
LITTLE FALLS   MOSUNNY   64  54  68 W10       29.82F
LITCHFIELD     SUNNY     72  59  64 NW8       29.85S
BUFFALO        SUNNY     70  54  56 W12G18    29.83S
MAPLE LAKE     SUNNY     70  58  67 NW13      29.84R
$$
MNZ037-044-045-052-053-201800-
   East Central Minnesota

CITY           SKY/WX    TMP DP  RH WIND       PRES   REMARKS
PRINCETON      SUNNY     70  57  64 N12G17    29.81S
MORA           MOSUNNY   63  54  72 NW9       29.81F
CAMBRIDGE      MOSUNNY   72  55  56 W12G17    29.78F
RUSH CITY      MOSUNNY   68  56  66 W9G16     29.80R
MOOSE LAKE     MOSUNNY   63  52  67 W8        29.76F
HINCKLEY       CLOUDY    63  54  72 W9        29.80R
CLOQUET        PTSUNNY   63  50  63 W12G17    29.76S
MCGREGOR       MOSUNNY   63  52  67 W12G20    29.78S
$$
MNZ071>073-080-081-089-090-097-098-201800-
   Southwest Minnesota

CITY           SKY/WX    TMP DP  RH WIND       PRES   REMARKS
MONTEVIDEO     SUNNY     73  61  64 NW6       29.87F
GRANITE FALLS  SUNNY     71  58  64 W10       29.88F
CANBY          SUNNY     74  59  59 W10G16    29.88F
MARSHALL       SUNNY     73  57  56 NW9       29.87F
REDWOOD FALLS  SUNNY     73  56  54 W15       29.87S
OLIVIA         SUNNY     70  57  64 NW12      29.86S
PIPESTONE      SUNNY     73  55  53 NW9       29.92S
WINDOM         SUNNY     75  57  53 W13       29.88S
WORTHINGTON    SUNNY     75  55  50 W13       29.90F
JACKSON        SUNNY     75  55  50 W14       29.89S
TRACY          SUNNY     74  59  58 CALM      29.89S
SLAYTON        SUNNY     74  55  50 W5        29.91S
$$
MNZ065>067-074>077-082>085-091>093-201800-
   South Central Minnesota

CITY           SKY/WX    TMP DP  RH WIND       PRES   REMARKS
MANKATO        SUNNY     72  54  53 NW16      29.85R
NEW ULM        SUNNY     72  57  60 NW13      29.85F
ST JAMES       SUNNY     73  55  53 W14G21    29.87S
FAIRMONT       SUNNY     75  55  50 W13       29.86S
GLENCOE        SUNNY     70  56  59 W12G17    29.83S
FARIBAULT      SUNNY     75  55  50 W8G17     29.83R
OWATONNA       SUNNY     72  57  60 W10       29.83S
WASECA         SUNNY     72  54  53 NW13      29.86R
ALBERT LEA     SUNNY     72  61  68 W7G17     29.84S
$$
MNZ078>079-086>088-094>096-201800-
   Southeast Minnesota

CITY           SKY/WX    TMP DP  RH WIND       PRES   REMARKS
ROCHESTER      MOSUNNY   72  61  68 NW14      29.82F
RED WING       SUNNY     73  59  60 W10       29.78S
STANTON        SUNNY     72  58  61 NW10      29.80S
DODGE CENTER   SUNNY     72  61  68 W12       29.82F
WINONA         PTSUNNY   72  63  73 W7        29.78F
AUSTIN         MOSUNNY   72  61  68 W14       29.83S
PRESTON        PTSUNNY   70  67  92 W14       29.82F
$$
ABBREVIATIONS USED IN REMARKS
   TC - TEMPERATURES IN CELSIUS
  WCI - WIND CHILL INDEX
   HX - HEAT INDEX
  VSB - VISIBILITY
$$


USA.gov is the U.S. government's official web portal to all federal, state and local government web resources and services.